Hourly Weather Kisva

Today, 27 July, Tuesday

Time Temperature Precipitation Wind Pressure Humidity
00:00 +21°C° 0 mm 1 mps 753 mmHg 54%
01:00 +20°C° 0 mm 1 mps 753 mmHg 56%
02:00 +20°C° 0 mm 1 mps 753 mmHg 59%
03:00 +18°C° 0 mm 2 mps 753 mmHg 61%
04:00 +19°C° 0 mm 1 mps 753 mmHg 63%
05:00 +20°C° 0 mm 1 mps 753 mmHg 64%
06:00 +20°C° 0 mm 1 mps 753 mmHg 66%
07:00 +22°C° 0 mm 1 mps 753 mmHg 61%
08:00 +24°C° 0 mm 1 mps 753 mmHg 57%
09:00 +25°C° 0 mm 2 mps 753 mmHg 52%
10:00 +27°C° 0 mm 2 mps 753 mmHg 47%
11:00 +28°C° 0 mm 2 mps 753 mmHg 42%
12:00 +30°C° 0 mm 2 mps 752 mmHg 37%
13:00 +29°C° 0 mm 2 mps 752 mmHg 39%
14:00 +29°C° 0 mm 3 mps 752 mmHg 41%
15:00 +28°C° 0 mm 3 mps 751 mmHg 43%
16:00 +26°C° 0.4 mm 4 mps 751 mmHg 53%
17:00 +23°C° 0.4 mm 5 mps 751 mmHg 64%
18:00 +21°C° 0.4 mm 5 mps 751 mmHg 74%
19:00 +20°C° 0.2 mm 4 mps 751 mmHg 77%
20:00 +19°C° 0.2 mm 4 mps 751 mmHg 80%
21:00 +19°C° 0.2 mm 3 mps 751 mmHg 83%
22:00 +18°C° 0 mm 3 mps 751 mmHg 84%
23:00 +18°C° 0 mm 2 mps 751 mmHg 85%

Tomorrow, 28 July, Wednesday

Time Temperature Precipitation Wind Pressure Humidity
00:00 +18°C° 0 mm 2 mps 751 mmHg 86%
01:00 +18°C° 0 mm 2 mps 751 mmHg 86%
02:00 +18°C° 0 mm 2 mps 750 mmHg 87%
03:00 +18°C° 0 mm 1 mps 750 mmHg 87%
04:00 +19°C° 0 mm 1 mps 750 mmHg 85%
05:00 +19°C° 0 mm 1 mps 750 mmHg 84%
06:00 +20°C° 0 mm 1 mps 750 mmHg 83%
07:00 +22°C° 0 mm 1 mps 750 mmHg 75%
08:00 +24°C° 0 mm 1 mps 750 mmHg 66%
09:00 +26°C° 0 mm 1 mps 750 mmHg 58%
10:00 +27°C° 0 mm 2 mps 749 mmHg 52%
11:00 +29°C° 0 mm 2 mps 749 mmHg 47%
12:00 +30°C° 0 mm 2 mps 749 mmHg 41%
13:00 +29°C° 0.2 mm 3 mps 748 mmHg 46%
14:00 +27°C° 0.2 mm 4 mps 748 mmHg 51%
15:00 +26°C° 0.2 mm 4 mps 748 mmHg 56%
16:00 +25°C° 0.2 mm 4 mps 748 mmHg 59%
17:00 +23°C° 0.2 mm 4 mps 748 mmHg 63%
18:00 +22°C° 0.2 mm 3 mps 748 mmHg 67%
19:00 +21°C° 0 mm 3 mps 747 mmHg 69%
20:00 +20°C° 0 mm 3 mps 747 mmHg 72%
21:00 +20°C° 0 mm 3 mps 746 mmHg 74%
22:00 +20°C° 0 mm 3 mps 746 mmHg 74%
23:00 +20°C° 0 mm 3 mps 745 mmHg 73%

Day after tomorrow, 29 July, Thursday

Time Temperature Precipitation Wind Pressure Humidity
00:00 +20°C° 0 mm 4 mps 745 mmHg 73%
01:00 +20°C° 0.1 mm 4 mps 745 mmHg 74%
02:00 +19°C° 0.1 mm 5 mps 744 mmHg 76%
03:00 +19°C° 0.1 mm 5 mps 744 mmHg 77%
04:00 +19°C° 0.1 mm 5 mps 743 mmHg 81%
05:00 +19°C° 0.1 mm 5 mps 743 mmHg 84%
06:00 +19°C° 0.1 mm 4 mps 743 mmHg 87%
07:00 +20°C° 0 mm 5 mps 743 mmHg 83%
08:00 +21°C° 0 mm 5 mps 743 mmHg 79%
09:00 +23°C° 0 mm 6 mps 742 mmHg 74%
10:00 +23°C° 0 mm 6 mps 743 mmHg 70%
11:00 +24°C° 0 mm 6 mps 743 mmHg 67%
12:00 +26°C° 0 mm 6 mps 743 mmHg 63%
13:00 +27°C° 0 mm 6 mps 743 mmHg 60%
14:00 +27°C° 0 mm 6 mps 743 mmHg 57%
15:00 +28°C° 0 mm 5 mps 743 mmHg 55%
16:00 +28°C° 0 mm 5 mps 742 mmHg 54%
17:00 +28°C° 0 mm 4 mps 742 mmHg 54%
18:00 +28°C° 0 mm 3 mps 742 mmHg 53%
19:00 +27°C° 0 mm 3 mps 742 mmHg 57%
20:00 +25°C° 0 mm 2 mps 742 mmHg 61%
21:00 +24°C° 0 mm 2 mps 742 mmHg 64%
22:00 +23°C° 0 mm 2 mps 742 mmHg 64%
23:00 +23°C° 0 mm 2 mps 742 mmHg 64%

30 July, Friday

Time Temperature Precipitation Wind Pressure Humidity
00:00 +23°C° 0 mm 2 mps 742 mmHg 64%
01:00 +21°C° 0 mm 2 mps 742 mmHg 66%
02:00 +21°C° 0 mm 2 mps 742 mmHg 68%
03:00 +21°C° 0 mm 2 mps 742 mmHg 70%
04:00 +21°C° 0 mm 2 mps 742 mmHg 73%
05:00 +21°C° 0 mm 2 mps 742 mmHg 75%
06:00 +21°C° 0 mm 2 mps 743 mmHg 77%
07:00 +23°C° 0 mm 2 mps 743 mmHg 70%
08:00 +25°C° 0 mm 2 mps 743 mmHg 63%
09:00 +27°C° 0 mm 2 mps 743 mmHg 57%
10:00 +28°C° 0 mm 2 mps 743 mmHg 53%
11:00 +29°C° 0 mm 2 mps 743 mmHg 49%
12:00 +30°C° 0 mm 2 mps 743 mmHg 45%
13:00 +30°C° 0 mm 2 mps 743 mmHg 47%
14:00 +30°C° 0 mm 2 mps 742 mmHg 49%
15:00 +29°C° 0 mm 1 mps 742 mmHg 52%
16:00 +29°C° 0 mm 2 mps 742 mmHg 53%
17:00 +28°C° 0 mm 2 mps 742 mmHg 53%
18:00 +28°C° 0 mm 2 mps 742 mmHg 54%
19:00 +27°C° 0 mm 2 mps 742 mmHg 56%
20:00 +26°C° 0 mm 2 mps 742 mmHg 57%
21:00 +26°C° 0 mm 3 mps 743 mmHg 58%
22:00 +25°C° 0 mm 2 mps 743 mmHg 61%
23:00 +24°C° 0 mm 2 mps 743 mmHg 63%

31 July, Saturday

Time Temperature Precipitation Wind Pressure Humidity
00:00 +23°C° 0 mm 2 mps 743 mmHg 66%
01:00 +23°C° 0 mm 2 mps 743 mmHg 68%
02:00 +21°C° 0 mm 2 mps 743 mmHg 70%
03:00 +20°C° 0 mm 3 mps 743 mmHg 73%
04:00 +20°C° 0 mm 2 mps 743 mmHg 72%
05:00 +20°C° 0 mm 2 mps 743 mmHg 70%
06:00 +20°C° 0 mm 2 mps 743 mmHg 69%
07:00 +22°C° 0 mm 3 mps 743 mmHg 61%
08:00 +26°C° 0 mm 3 mps 743 mmHg 52%
09:00 +28°C° 0 mm 4 mps 743 mmHg 44%
10:00 +29°C° 0 mm 4 mps 743 mmHg 40%
11:00 +30°C° 0 mm 4 mps 743 mmHg 35%
12:00 +33°C° 0 mm 5 mps 743 mmHg 31%
13:00 +33°C° 0 mm 5 mps 743 mmHg 31%
14:00 +33°C° 0 mm 5 mps 743 mmHg 30%
15:00 +34°C° 0 mm 5 mps 743 mmHg 30%
16:00 +33°C° 0 mm 5 mps 743 mmHg 32%
17:00 +33°C° 0 mm 5 mps 743 mmHg 35%
18:00 +32°C° 0 mm 5 mps 743 mmHg 37%
19:00 +29°C° 0 mm 4 mps 743 mmHg 44%
20:00 +27°C° 0 mm 3 mps 743 mmHg 51%
21:00 +25°C° 0 mm 3 mps 743 mmHg 58%
22:00 +24°C° 0 mm 2 mps 743 mmHg 60%
23:00 +23°C° 0 mm 2 mps 743 mmHg 62%

1 August, Sunday

Time Temperature Precipitation Wind Pressure Humidity
00:00 +23°C° 0 mm 2 mps 743 mmHg 64%
01:00 +21°C° 0 mm 2 mps 743 mmHg 65%
02:00 +21°C° 0 mm 2 mps 743 mmHg 66%
03:00 +21°C° 0 mm 2 mps 743 mmHg 67%
04:00 +21°C° 0 mm 2 mps 743 mmHg 67%
05:00 +21°C° 0 mm 2 mps 743 mmHg 66%
06:00 +22°C° 0 mm 3 mps 743 mmHg 65%
07:00 +25°C° 0 mm 4 mps 742 mmHg 56%
08:00 +27°C° 0 mm 6 mps 742 mmHg 48%
09:00 +30°C° 0 mm 7 mps 742 mmHg 39%
10:00 +32°C° 0 mm 8 mps 741 mmHg 36%
11:00 +34°C° 0 mm 8 mps 741 mmHg 34%
12:00 +35°C° 0 mm 9 mps 741 mmHg 31%
13:00 +35°C° 0 mm 9 mps 741 mmHg 33%
14:00 +34°C° 0 mm 8 mps 740 mmHg 35%
15:00 +34°C° 0 mm 8 mps 740 mmHg 37%
16:00 +33°C° 0 mm 7 mps 741 mmHg 42%
17:00 +32°C° 0 mm 7 mps 741 mmHg 46%
18:00 +30°C° 0 mm 6 mps 741 mmHg 50%
19:00 +28°C° 0 mm 5 mps 741 mmHg 57%
20:00 +26°C° 0 mm 4 mps 742 mmHg 64%
21:00 +24°C° 0 mm 3 mps 743 mmHg 71%
22:00 +23°C° 0 mm 2 mps 743 mmHg 73%
23:00 +21°C° 0 mm 2 mps 743 mmHg 76%
Show more